Dewpoint
75 75 75 74 74 74 72 69 57 61 59 53 53 55 53 60 63 58 57 62 58 60 61 61 61 60 62 60 61 63 63 59 61 54 50 64 70 71 72 72 72 72 73 73 74 74 74 74 76 76 75 75 75 75 75 76 76 76 76 76 77 77 77 77 77 77 77 77 77 77 77 77 76 76 76 76 76 76 75 75 75 75 75 75 75 74 74 74 74 74 74 74 75 75 75 74 74
75 74 74 73 72 72 66 69 60 56 58 53 50 54 54 58 59 58 56 59 58 59 60 61 62 63 63 63 63 61 62 66 66 65 67 69 70 71 72 73 73 72 73 73 74 74 74 75 75 76 74 75 75 75 76 76 76 76 76 77 77 77 77 77 77 77 77 77 77 77 76 76 76 76 76 76 75 75 75 75 75 75 75 74 74 74 73 73 74 74 74 74 74 74 74 74 75
74 73 73 73 71 70 68 67 55 52 50 47 49 53 57 56 56 57 57 57 58 60 61 62 63 62 62 61 59 61 58 66 66 66 67 70 68 71 73 73 73 73 73 73 73 74 74 74 75 75 75 75 76 76 76 76 76 76 76 76 77 77 77 77 77 77 77 77 76 76 76 76 76 76 76 75 75 75 75 75 75 75 74 74 74 74 74 74 74 74 74 74 74 74 74 74 74
73 73 72 71 67 70 62 60 56 52 49 50 50 53 56 55 55 56 58 59 60 61 61 60 60 62 60 61 62 64 64 64 66 67 67 68 68 71 72 73 74 73 73 73 73 74 74 75 75 75 75 76 76 75 76 76 76 76 76 76 77 77 77 77 77 77 77 77 76 76 76 76 76 76 76 75 75 75 75 75 74 75 74 74 74 74 75 74 75 74 75 74 74 74 74 74 74
72 73 72 71 66 62 60 56 55 53 49 51 49 52 56 55 55 57 58 60 60 60 59 60 60 62 64 62 62 60 63 66 66 67 68 70 72 72 73 73 73 73 73 73 74 74 75 75 75 75 75 75 75 75 76 76 76 76 76 77 77 77 77 76 76 77 77 76 76 76 76 76 76 75 75 75 75 75 75 74 74 74 74 74 74 74 75 75 75 75 74 74 74 74 75 75 74
71 71 72 71 63 66 63 55 54 53 52 55 53 52 54 54 55 58 59 59 59 60 60 60 60 60 62 63 65 64 65 63 66 67 69 70 71 72 73 73 73 73 73 73 74 74 75 76 76 75 75 75 75 76 76 76 76 76 76 76 77 77 77 76 76 76 76 76 76 76 76 75 75 75 75 75 75 74 74 74 74 74 74 74 74 74 75 75 75 74 75 74 74 75 75 74 74
68 68 68 69 67 66 57 54 54 55 55 54 54 53 53 55 58 58 58 59 60 60 61 60 62 61 60 62 64 65 68 68 67 68 70 71 71 72 73 72 72 72 73 73 73 74 75 75 76 77 75 75 75 76 76 76 76 76 76 76 77 77 76 76 76 76 76 76 76 75 75 75 75 75 75 75 75 75 74 74 74 74 74 74 75 75 75 75 75 75 75 75 75 75 74 74 74
69 66 66 63 60 59 56 55 56 56 55 55 55 52 53 58 58 57 58 58 58 59 60 61 62 61 62 65 62 66 67 68 69 71 71 71 71 72 72 72 72 72 72 73 73 74 76 76 77 77 75 75 75 76 76 76 76 76 76 76 76 77 76 76 76 76 76 76 75 75 75 75 75 75 75 75 75 74 74 74 75 75 75 75 75 75 75 75 75 75 75 74 75 74 74 74 73
67 64 67 62 58 58 56 55 55 57 56 56 54 56 57 57 57 58 58 59 59 59 60 62 61 58 63 64 64 67 68 70 70 71 71 71 71 71 71 72 72 72 72 73 73 74 75 76 76 76 75 75 76 76 76 76 76 76 76 76 76 76 76 76 76 76 76 76 75 75 75 75 75 75 75 75 75 75 75 75 75 75 75 75 75 75 75 75 74 74 74 74 74 74 74 73 74
65 63 60 60 57 54 54 53 53 52 55 56 55 53 54 56 57 58 58 58 58 59 60 61 62 61 64 63 65 67 68 70 70 70 70 70 71 71 71 71 72 72 72 73 73 75 75 76 76 76 76 75 76 76 76 76 76 76 76 76 76 76 76 76 76 75 76 76 76 75 75 75 75 75 75 75 75 75 74 75 75 75 75 75 75 75 75 74 74 74 73 74 74 74 74 74 75
61 64 65 58 54 52 52 52 53 53 52 52 55 52 55 56 57 58 58 58 59 59 63 64 63 63 64 64 65 68 70 70 69 69 70 70 70 70 70 71 72 72 72 73 73 75 75 75 77 77 77 76 75 76 76 76 76 76 76 76 76 76 76 76 75 75 76 76 76 76 75 75 75 75 75 75 75 75 74 74 75 75 74 75 75 75 75 75 75 74 74 74 75 75 74 74 74
60 60 61 56 54 52 52 52 50 51 51 49 51 53 56 57 57 57 58 58 60 61 62 63 62 64 63 64 66 68 69 69 69 69 69 69 69 70 70 71 72 72 73 73 74 74 75 76 76 77 76 76 76 76 76 75 76 76 76 76 76 76 76 75 75 75 75 75 76 76 75 75 75 75 75 76 75 75 74 75 75 75 75 75 76 75 76 75 75 75 75 75 75 75 75 74 74
62 62 59 54 53 54 54 51 50 52 48 47 47 52 56 56 56 58 58 60 61 61 61 63 64 64 62 63 67 68 67 68 69 69 69 68 69 69 70 71 72 72 73 74 74 74 75 75 75 76 76 75 76 76 76 75 76 76 76 76 76 76 76 75 75 75 75 75 75 76 76 75 76 76 76 76 76 75 75 74 75 75 75 75 75 76 76 75 75 75 75 75 75 74 74 75 75
62 61 58 54 53 51 50 49 49 48 38 42 47 53 56 56 57 59 61 60 60 59 62 65 64 64 64 65 66 66 67 68 69 69 68 68 68 69 71 71 72 72 73 74 74 74 75 75 76 75 75 76 75 76 75 75 76 76 76 76 76 76 75 75 75 75 75 75 76 76 75 76 76 76 76 76 76 75 74 74 75 75 75 76 76 76 76 75 75 75 74 75 75 74 74 74 74
60 63 56 54 51 50 50 49 47 44 39 44 52 55 56 58 59 60 60 60 60 63 64 65 65 62 62 63 64 65 67 68 68 68 67 67 68 70 71 71 72 72 73 73 74 75 75 75 75 75 75 75 75 75 75 74 76 76 76 76 76 76 75 75 75 75 75 75 76 76 75 76 76 76 76 76 76 75 74 74 75 74 75 75 76 76 76 76 75 75 74 74 75 75 75 74 74
61 63 57 52 49 49 48 48 38 36 38 50 54 55 56 58 60 60 60 60 62 64 63 62 64 60 62 62 63 66 67 68 68 67 67 67 70 71 71 71 72 72 73 73 74 75 75 75 75 75 75 75 75 74 75 74 75 76 76 76 76 76 75 75 75 75 75 75 75 75 75 76 76 75 76 76 76 76 75 75 75 75 75 75 75 76 75 76 75 75 74 75 75 75 75 73 73
65 63 57 52 49 49 47 42 39 36 34 49 51 56 56 57 59 59 61 63 61 62 62 63 62 64 64 63 66 67 68 68 68 67 66 69 70 71 71 71 71 72 73 73 74 74 75 75 75 75 75 75 75 74 74 74 75 76 75 76 76 76 76 75 75 75 75 75 75 75 76 75 75 75 75 75 76 76 76 76 75 75 75 75 75 75 75 75 76 76 76 75 75 74 75 75 75
63 60 56 53 52 50 50 46 41 39 33 44 54 56 56 55 57 60 61 61 61 61 61 62 63 63 64 66 67 67 68 68 67 66 67 69 70 70 70 70 71 71 72 73 74 74 74 75 75 75 75 75 75 75 75 75 75 75 74 75 75 75 75 75 75 75 75 75 75 75 75 76 75 74 74 77 75 76 76 76 76 75 76 76 75 75 75 75 75 76 75 75 75 74 74 75 76
57 53 52 52 50 50 50 46 43 39 33 46 54 56 56 55 59 59 58 58 59 59 60 62 62 63 65 66 67 67 67 67 67 67 68 68 69 69 69 70 70 71 71 73 73 74 74 74 75 75 75 75 75 75 75 75 75 75 74 75 75 75 76 75 75 76 75 75 75 75 76 75 75 75 75 76 76 77 77 77 76 77 76 75 75 75 76 76 75 76 75 74 74 73 74 73 74
61 55 50 50 50 49 48 46 46 44 39 49 53 54 54 57 58 59 57 57 58 59 60 61 62 63 64 66 66 67 67 67 67 67 68 68 69 69 69 69 69 70 71 72 73 74 74 74 75 75 75 75 75 75 75 75 75 75 75 75 75 75 75 76 75 76 75 75 75 75 75 75 75 74 78 77 76 76 77 77 76 77 76 75 75 76 77 77 75 74 74 75 77 78 74 73 73
55 56 53 52 51 50 49 49 49 46 48 51 52 53 55 58 58 57 57 57 57 59 60 61 62 63 64 65 66 66 66 66 67 67 68 68 69 69 69 70 69 70 71 72 72 73 73 74 75 75 75 75 75 75 75 75 75 75 75 75 75 75 75 75 75 75 75 75 75 75 75 75 76 75 75 76 75 75 75 75 75 75 75 74 77 75 75 75 76 75 76 76 74 75 74 73 73
50 54 55 53 51 49 49 48 48 45 48 50 51 52 55 57 57 57 57 56 56 58 60 62 63 63 64 65 65 66 66 66 66 67 67 68 68 69 69 70 70 70 71 71 72 72 73 73 74 74 75 75 75 75 75 75 75 75 75 75 75 75 75 75 75 75 75 75 75 75 76 75 75 75 75 75 75 75 75 75 75 75 74 75 76 75 74 75 75 75 75 75 74 74 74 73 72
49 50 49 51 51 50 50 49 48 44 43 47 51 52 54 54 55 57 57 56 58 59 61 62 63 64 65 65 65 65 65 66 66 67 67 68 68 69 69 69 69 69 71 71 71 72 72 73 74 74 74 75 75 75 75 75 75 75 75 75 75 75 75 75 75 75 75 75 75 75 75 75 74 74 74 75 75 74 75 75 75 75 74 74 75 74 74 75 75 75 74 74 73 73 73 72 72
50 48 48 46 47 48 49 48 48 45 40 43 50 52 52 53 53 57 56 56 58 60 62 63 63 64 64 65 65 65 65 66 66 67 67 67 68 68 69 69 69 70 70 70 71 71 73 73 73 74 74 74 74 74 75 75 75 75 75 76 76 75 75 75 75 75 75 75 75 75 76 75 74 74 74 74 74 74 74 75 75 74 74 74 74 75 75 74 74 73 73 72 72 72 72 72 72
49 49 49 48 47 47 46 46 46 45 38 42 47 49 50 52 53 56 55 56 59 61 62 63 64 64 64 64 65 65 65 66 66 67 67 67 68 68 69 69 69 69 70 70 70 71 72 73 73 73 73 74 74 74 74 74 75 75 75 75 75 76 75 75 75 75 75 75 75 75 76 75 74 73 73 74 74 73 74 74 74 74 74 74 74 73 73 73 73 72 72 72 72 72 71 71 71
49 47 47 47 46 46 46 46 45 44 39 42 41 47 48 50 52 54 52 58 60 61 62 63 63 63 64 64 64 65 65 66 66 66 66 67 67 68 68 68 68 69 69 69 70 71 72 73 73 73 73 73 73 73 73 73 74 74 74 74 75 76 75 75 75 75 75 75 75 75 75 75 74 73 73 73 73 73 73 73 74 73 73 73 73 73 73 72 71 72 72 73 72 71 71 71 70
46 48 48 48 47 46 45 43 43 43 38 38 38 42 42 43 51 48 57 60 61 61 62 62 63 63 63 64 64 65 65 65 66 66 66 67 67 67 68 68 68 68 69 69 70 71 72 73 73 73 73 74 73 73 73 73 74 74 74 74 74 75 75 75 75 75 74 74 74 75 75 75 74 73 73 73 73 73 72 72 72 72 72 72 73 73 73 72 72 72 72 71 71 71 71 71 71
47 47 42 36 37 39 38 39 42 42 39 37 34 36 36 42 48 48 57 60 61 61 61 62 62 63 63 63 64 65 65 66 66 66 66 66 67 67 68 68 68 69 68 68 69 71 72 72 72 73 73 73 73 73 73 73 73 73 73 74 74 74 75 74 74 74 75 74 74 74 75 74 76 73 73 72 72 72 72 72 72 72 72 72 73 73 73 74 73 72 73 72 72 72 71 70 71
33 29 24 24 26 28 29 32 38 41 39 38 34 38 38 43 43 52 59 60 60 60 61 61 61 62 63 63 64 65 65 65 66 66 66 66 67 68 68 68 69 69 69 69 70 71 72 72 72 73 72 73 73 73 73 73 73 73 73 73 74 74 74 74 74 74 73 74 74 74 74 74 75 74 72 72 75 72 72 71 72 73 72 72 73 73 73 73 73 72 72 73 71 71 70 70 71
26 24 24 22 20 19 21 30 32 38 38 39 38 33 37 43 45 56 60 60 60 60 60 61 61 62 62 63 63 64 65 65 65 66 66 67 67 68 68 68 69 69 69 70 70 71 72 72 72 72 72 72 73 73 73 73 73 72 73 73 74 74 74 74 74 73 74 73 74 74 74 74 75 75 73 72 73 72 72 72 72 72 72 73 73 73 73 72 72 71 70 71 74 72 70 70 69
29 26 29 18 18 19 21 31 34 36 39 40 39 36 37 37 52 57 59 60 60 59 60 60 61 61 62 62 63 64 64 65 65 65 66 66 67 68 68 68 69 69 70 70 70 71 72 72 73 72 73 72 73 73 73 73 73 73 72 73 73 74 73 73 73 73 73 73 73 74 74 74 75 75 74 73 73 72 72 72 72 72 73 73 73 73 72 72 72 71 72 70 70 70 69 70 69
22 20 22 20 19 20 20 25 34 35 40 40 39 38 38 40 54 57 59 59 59 59 60 60 60 61 61 62 63 63 64 64 65 65 65 66 67 67 68 68 69 69 70 70 71 71 72 72 73 72 73 72 73 73 73 73 73 73 72 74 73 73 73 73 73 73 72 73 73 73 74 74 75 74 74 73 72 72 72 72 72 72 73 73 72 72 72 72 71 71 72 71 69 68 69 67 67
22 18 20 19 19 18 18 20 26 33 38 39 38 37 46 50 55 57 58 59 59 59 59 60 60 60 61 62 62 63 63 64 64 65 65 66 66 67 68 68 69 69 70 70 70 71 71 72 73 72 73 73 73 73 73 73 73 72 72 72 73 73 73 72 73 72 72 72 72 73 73 74 75 74 74 74 72 72 72 72 72 73 74 73 72 72 72 72 71 71 70 72 69 68 67 67 67
22 21 19 20 17 20 19 20 21 29 38 37 38 39 41 50 54 56 57 58 58 58 59 59 60 60 61 61 62 63 63 63 64 64 65 65 66 67 68 69 69 69 70 70 70 71 71 72 73 72 73 73 73 73 73 72 72 72 72 72 73 72 72 72 72 72 72 72 72 73 73 74 75 74 75 74 73 73 72 72 73 73 74 73 72 72 72 71 70 70 69 70 71 69 66 66 65
24 23 20 18 21 18 17 18 20 35 37 37 37 37 41 51 54 55 56 58 58 58 58 59 59 60 60 61 62 62 63 63 63 64 65 65 65 66 67 68 68 69 69 70 70 71 71 71 72 72 72 73 73 73 73 72 72 72 72 71 71 72 72 72 72 71 71 72 72 73 73 74 75 74 75 75 73 74 73 73 73 74 74 73 72 72 71 71 71 70 69 68 71 69 66 66 64
18 19 19 21 18 19 18 19 21 33 36 36 36 36 38 51 54 55 56 57 57 57 58 59 59 59 60 60 61 62 62 63 64 64 64 65 65 66 66 67 68 68 69 70 70 70 70 71 71 72 72 72 72 72 72 71 71 71 70 71 71 71 71 72 71 71 71 72 72 73 74 74 75 74 75 75 74 74 73 73 74 74 73 72 72 71 70 71 71 70 69 69 68 68 68 67 65
19 18 18 17 17 17 18 19 21 29 35 35 36 36 40 50 53 54 55 56 56 56 57 58 58 58 59 59 60 61 62 62 63 63 63 64 64 65 66 66 67 68 68 69 69 70 70 70 71 71 72 72 72 71 71 70 70 70 70 70 70 70 71 71 71 71 71 71 72 73 74 74 75 75 75 75 75 76 74 74 74 73 73 73 72 71 71 71 70 70 69 70 67 64 62 65 65
17 17 16 15 16 16 17 20 22 24 32 32 36 35 41 49 53 54 55 55 55 55 56 57 57 58 58 59 60 60 61 62 62 62 62 63 63 64 65 65 67 66 67 68 69 69 70 70 70 70 71 72 72 71 71 70 70 70 70 69 69 70 70 70 70 71 70 71 72 73 74 74 75 75 75 75 75 75 74 74 74 73 73 72 72 72 71 73 71 69 66 64 64 62 60 64 64
17 17 17 15 15 16 17 18 20 21 22 23 32 35 38 48 52 54 54 55 55 55 56 56 57 57 58 58 59 60 60 61 61 61 61 61 62 63 64 65 66 66 67 68 68 69 69 69 70 70 71 71 71 71 71 70 70 70 70 69 69 69 70 70 70 71 71 70 71 72 74 74 75 75 75 75 75 75 74 74 74 73 73 73 72 71 71 71 69 69 65 62 61 63 64 66 64
17 17 17 16 16 17 16 20 22 24 20 29 36 33 39 44 52 53 54 55 55 55 56 56 57 57 57 57 58 59 59 60 60 60 60 60 61 62 63 64 65 66 66 67 68 68 69 69 69 70 70 71 71 71 72 71 71 70 70 70 70 69 69 71 71 71 71 71 72 73 74 74 75 75 75 75 75 75 74 74 73 73 73 73 72 71 70 70 66 65 63 65 62 60 61 62 67
21 17 17 17 16 16 16 19 18 20 19 23 30 38 40 41 46 50 53 55 54 54 55 56 56 57 57 57 58 59 59 59 59 59 59 60 60 61 62 63 64 65 66 66 67 68 68 68 69 69 70 71 71 72 71 71 71 70 70 70 71 70 71 71 70 70 70 72 72 74 74 74 75 75 75 75 75 74 74 74 73 73 73 72 72 71 70 69 66 65 63 64 62 61 60 62 65
23 22 18 17 17 16 17 19 17 18 18 27 28 31 35 39 43 48 51 52 52 52 53 54 55 56 56 56 57 58 59 59 58 58 58 59 60 60 61 62 64 64 65 66 67 67 68 68 68 69 70 70 70 71 71 71 71 70 69 69 69 69 68 69 69 68 69 70 71 74 75 75 75 75 75 75 75 74 73 73 73 73 72 72 71 70 69 66 65 64 64 63 62 62 62 62 60
21 22 21 19 18 17 17 16 16 20 18 24 33 27 30 38 38 43 48 50 50 50 51 52 54 55 55 55 56 57 57 57 57 58 58 58 59 60 60 61 63 64 65 66 67 67 67 68 68 69 69 70 71 70 70 71 70 70 69 69 69 68 68 68 69 69 69 71 73 74 74 75 75 75 75 75 75 74 73 73 73 73 72 72 72 67 66 65 65 65 66 64 63 67 63 60 60
21 23 18 17 17 16 16 17 16 19 31 29 26 34 32 33 36 39 44 47 48 48 49 51 52 54 54 54 55 56 57 57 56 57 57 58 59 59 60 61 62 63 64 66 66 67 67 67 68 68 69 70 70 70 70 71 70 70 69 69 69 68 68 68 69 69 70 71 73 74 74 75 75 75 75 75 75 74 73 73 73 73 72 71 71 67 66 65 65 65 67 65 65 66 63 62 61
21 19 16 15 14 14 15 15 16 17 18 16 21 25 23 35 38 39 40 43 46 46 47 49 50 51 53 53 53 55 56 56 56 56 56 57 58 59 60 60 61 62 64 65 66 66 67 67 68 68 69 70 70 70 70 70 71 70 69 69 68 69 68 68 70 70 70 72 72 73 74 74 75 75 75 75 75 74 74 73 72 72 71 70 72 67 65 65 65 65 66 65 65 65 63 63 62
20 18 18 15 14 14 15 15 15 21 21 17 18 22 19 24 38 38 40 40 42 44 45 47 49 49 51 52 52 53 55 56 56 55 55 56 57 58 59 60 60 62 63 66 66 66 67 67 68 68 68 69 70 70 70 70 70 71 70 69 68 68 69 69 70 70 70 71 71 72 73 74 74 74 74 74 74 74 73 73 72 71 71 69 71 67 65 65 65 65 66 65 65 64 64 65 62
21 17 15 12 11 14 18 21 22 24 17 18 17 19 19 17 27 35 39 39 40 41 43 45 47 48 49 51 51 52 53 55 55 55 55 56 56 57 58 59 60 61 63 64 65 66 66 67 67 68 68 69 70 70 70 70 70 70 70 69 69 68 69 69 69 69 70 70 71 72 73 73 74 74 74 74 74 74 73 73 72 71 70 70 71 66 65 65 65 66 66 65 65 64 65 64 66
18 12 13 13 14 17 15 20 27 13 10 18 18 17 20 17 23 34 38 40 40 40 40 42 44 45 47 49 50 51 52 54 54 55 55 55 56 56 58 58 59 60 62 63 64 65 66 66 67 67 68 69 70 70 70 69 70 70 70 69 69 69 69 69 69 68 69 70 70 71 72 73 73 74 73 73 73 73 73 72 72 71 69 68 69 67 65 65 66 66 65 65 65 65 65 65 65
15 14 15 12 14 12 11 12 8 10 10 21 17 18 21 20 21 32 36 39 41 41 40 41 42 43 45 46 49 50 50 52 54 54 55 55 55 55 57 58 59 60 61 62 64 64 65 66 66 67 67 68 69 70 70 70 69 69 70 69 69 69 69 69 69 69 69 69 70 71 72 72 72 72 73 73 73 73 72 72 71 70 69 68 68 67 65 66 66 65 65 65 64 64 64 64 64
14 14 14 12 9 8 11 13 17 14 18 23 20 20 15 30 27 26 34 38 40 41 41 41 41 42 43 45 47 49 49 51 53 54 54 55 55 55 56 57 59 60 60 62 63 64 65 66 66 66 67 68 69 70 70 70 69 69 70 70 69 69 69 69 69 69 69 70 70 70 71 72 72 72 72 72 73 72 72 72 71 70 69 68 68 67 66 66 66 65 65 65 64 64 64 64 64
14 14 11 13 11 12 10 10 6 6 10 13 20 19 24 18 26 30 32 38 40 41 42 42 42 42 43 43 45 47 48 49 52 53 54 55 56 56 56 57 58 59 60 61 63 64 65 65 66 67 67 68 69 70 70 70 70 70 70 70 70 70 69 69 69 69 69 70 70 70 71 71 71 72 72 72 73 72 71 71 71 70 69 68 68 67 66 66 66 66 66 65 65 64 63 64 63
12 12 12 12 11 25 6 15 13 14 11 12 23 21 28 20 36 34 31 35 39 41 41 43 42 43 43 43 44 46 47 48 50 52 53 54 56 56 56 57 58 59 60 60 62 64 65 65 66 66 67 67 68 70 70 70 70 70 70 70 70 70 70 70 70 70 70 70 70 70 70 71 71 72 72 72 72 71 71 71 71 70 69 68 68 67 66 65 66 65 65 65 65 66 64 64 64
14 8 9 10 13 8 12 27 27 26 19 13 30 25 25 30 26 28 33 33 37 40 40 40 41 41 43 44 44 45 46 47 49 51 53 54 55 56 57 57 57 59 60 60 62 63 65 66 66 66 67 67 68 69 69 70 70 70 70 70 70 70 69 69 69 70 70 70 70 70 70 71 71 71 72 72 71 71 70 70 70 69 69 68 68 67 66 65 65 65 65 65 64 65 65 64 64
7 8 9 11 13 10 10 6 10 6 5 13 21 14 18 22 22 37 32 34 34 37 39 39 40 41 42 43 45 45 45 46 48 50 53 54 55 56 56 57 57 58 59 60 61 63 65 66 66 66 66 67 67 68 69 70 70 70 70 70 70 70 69 69 69 70 70 70 70 70 70 70 71 71 71 71 71 71 70 71 69 69 68 68 68 67 66 65 65 65 65 65 65 65 65 65 64
12 8 9 7 10 7 15 14 4 4 4 4 15 20 20 24 27 29 31 33 34 36 39 39 39 40 42 43 45 46 46 46 47 48 51 53 54 55 57 56 57 58 60 60 61 62 64 65 66 66 66 67 68 68 69 70 70 70 70 70 70 70 70 69 69 70 70 70 70 70 70 70 71 71 71 71 71 71 70 70 69 69 68 68 68 67 66 65 65 64 64 64 64 64 64 64 64
15 8 5 10 8 8 9 9 19 10 8 13 2 16 7 26 22 27 27 34 35 34 36 38 38 40 41 43 44 46 46 46 46 47 49 51 52 54 56 56 56 57 59 60 61 62 63 65 66 66 67 67 68 68 69 69 69 70 70 70 70 70 70 70 70 70 70 70 70 70 70 70 70 71 71 71 70 70 70 70 69 69 68 68 68 67 65 64 65 64 64 64 64 64 64 64 64
14 11 5 6 12 14 7 21 6 8 18 11 8 5 14 25 30 28 27 31 35 35 36 38 38 39 41 42 44 45 46 46 47 47 48 49 51 52 54 56 57 57 59 60 60 61 62 64 66 67 67 67 67 68 69 69 69 69 70 70 70 70 70 70 70 70 70 70 71 71 70 70 71 70 70 70 70 70 70 70 69 69 68 68 68 67 65 64 64 64 64 64 63 64 64 63 64
14 13 9 4 5 9 4 5 14 17 11 16 9 3 14 21 33 29 27 31 34 36 36 37 38 38 41 42 43 45 46 46 47 48 48 49 50 51 53 55 57 56 57 59 60 61 62 63 65 66 67 67 67 68 69 69 69 69 69 69 70 70 71 71 70 70 70 70 70 71 71 71 70 70 70 70 70 70 70 70 69 69 69 68 68 67 65 64 63 63 63 64 63 63 63 63 63